Terug naar catalogus

STARLINK-32607

ActiefCommunicatieVLEO
NORAD 61977·PAYLOAD·🇺🇸 United States

Gelanceerd Nov 14, 2024 vanaf Cape Canaveral Space Force Station

Loading…

Volgende Passages (komende 24 uur)

TLE

VersSource: CelesTrak SupGP

Epoch: Sep 14, 2026, 20:56 UTC

1 61977C 24210U   26257.87270833  .00014601  00000+0  52870-3 0  2572
2 61977  43.0007 191.5905 0001285 266.1610 359.0574 15.27580744    11

Volg STARLINK-32607 in realtime met AllMySat

Download on the App Store